Terminal Aerodrome Forecast
Issued by NWS

Home | Current Version | Previous Version | Graphics & Text | Print | Product List | Glossary On
Versions: 1 2 3 4 5 6 7 8 9 10 11 12 13 14 15 16 17 18 19 20 21 22 23 24 25 26 27 28 29 30 31 32 33 34 35 36 37 38 39 40 41
000
FTUS45 KGGW 280400 AAA
TAFOLF
TAF AMD
KOLF 280446Z 2805/2824 08008KT P6SM BKN008
     FM280900 VRB03KT 5SM BR BKN005
     FM281300 VRB03KT 1/2SM FZFG BKN001
     FM281600 VRB03KT P6SM BKN050=

USA.gov is the U.S. government's official web portal to all federal, state and local government web resources and services.